Location: *
(44.1392°N, 4.8079°E)
Time: 06:44:43
(UTC+00:00)

Cosmos 1634 Rocket - Pass Details

Date: 21 June 2021
Orbit: 960 x 992 km, 82.9° (Epoch: 02 August)

Event Time Altitude Azimuth Distance (km) Brightness Sun altitude
Rises 00:17:32 0° 346° (NNW) 3,709 8.2 -21.9°
Reaches altitude 10° 00:20:09 10° 341° (NNW) 2,759 7.2 -21.9°
Maximum altitude 00:26:09 48° 270° (W) 1,279 4.5 -21.7°
Enters shadow 00:28:16 35° 223° (SW) 1,538 4.6 -21.6°
